[[{"header":{"parameterUnit":"m.s-1","parameterCategory":1,"la1":30.2992,"la2":30.254,"lo1":-89.0895,"lo2":-89.0443,"dy":0.0025,"dx":0.0025,"nx":19,"ny":19,"refTime":"2026-03-21T09:00:00:Z","depth":0,"parameterNumber":2,"parameterNumberName":"U-component_of_WINDS"},"data":[0,0,0,-0.1608,-0.1604,-0.1411,-0.141,-0.1179,-0.1177,0,0,0,0,0,0,0,0,0,0,0,-0.1677,-0.1676,-0.1609,-0.1604,-0.1411,-0.141,-0.118,-0.1177,0,0,0,0,0,0,0,0,0,0,0,-0.1678,-0.1677,-0.1675,-0.1603,-0.1411,-0.141,-0.118,-0.132,0,0,0,0,0,0,0,0,0,0,-0.1504,-0.158,-0.1677,-0.1675,-0.1602,-0.1412,-0.141,-0.1326,-0.1311,-0.1274,0,-0.1247,0,-0.1209,-0.1163,-0.1163,0,0,0,-0.1595,-0.1593,-0.153,-0.1675,-0.1601,-0.1412,-0.1496,-0.1317,-0.13,-0.1255,-0.1244,-0.1235,-0.1205,-0.1162,-0.1161,-0.0987,-0.0986,0,0,-0.1605,-0.1648,-0.1542,-0.152,-0.1553,-0.1502,-0.149,-0.1307,-0.1297,-0.1243,-0.1229,-0.1201,-0.116,-0.1159,-0.0987,-0.0987,0,0,0,-0.1642,-0.1656,-0.1598,-0.153,-0.1494,-0.1496,-0.1482,-0.1305,-0.1282,-0.1226,-0.1199,-0.1159,-0.1157,-0.0987,-0.0987,-0.101,0,0,0,-0.1648,-0.1678,-0.1603,-0.1627,-0.1498,-0.1398,-0.1485,-0.1295,-0.1273,-0.12,-0.1159,-0.1155,-0.0988,-0.0987,-0.101,-0.1013,0,0,0,-0.1686,-0.1682,-0.1658,-0.163,-0.1549,-0.1399,-0.1366,-0.1289,-0.1257,-0.1162,-0.1154,-0.0988,-0.0987,-0.1011,-0.1013,-0.0979,0,0,0,-0.1738,-0.1682,-0.166,-0.1586,-0.1551,-0.1417,-0.1367,-0.1264,-0.1186,-0.1158,-0.0988,-0.0987,-0.1011,-0.1013,-0.0979,-0.0956,-0.0952,0,0,-0.1691,-0.1678,-0.1631,-0.1605,-0.1486,-0.1443,-0.1326,-0.1213,-0.1163,-0.1048,-0.1043,-0.101,-0.1013,-0.0979,-0.0913,-0.091,0,0,0,-0.163,-0.1597,-0.1556,-0.1485,-0.1399,-0.1324,-0.1225,-0.1183,-0.1083,-0.1114,-0.0988,-0.0989,-0.0967,-0.0953,-0.095,-0.0928,-0.0984,-0.0984,-0.0984,-0.1624,-0.1566,-0.1484,-0.1402,-0.1334,-0.1232,-0.117,-0.1096,-0.1056,-0.1028,-0.0992,-0.096,-0.0946,-0.0944,-0.0921,-0.0977,-0.0977,-0.0977,-0.0977,-0.1548,-0.1491,-0.1441,-0.1343,-0.1281,-0.1198,-0.1098,-0.1073,-0.0984,-0.0982,-0.0959,-0.0959,-0.0942,-0.0918,-0.0979,-0.0978,-0.0978,-0.0978,-0.0978,-0.1535,-0.1498,-0.1449,-0.134,-0.1262,-0.1181,-0.1099,-0.1046,-0.0994,-0.0973,-0.0928,-0.0927,-0.0918,-0.0956,-0.0956,-0.0956,-0.0956,-0.0955,-0.0955,-0.1541,-0.1485,-0.1424,-0.1328,-0.1275,-0.1198,-0.1097,-0.1042,-0.0968,-0.0935,-0.0934,-0.0896,-0.0952,-0.0966,-0.0953,-0.0954,-0.0954,-0.0954,-0.0954,-0.1481,-0.1486,-0.1392,-0.1339,-0.1221,-0.1147,-0.1081,-0.0974,-0.0922,-0.0882,-0.085,-0.0901,-0.0882,-0.0884,-0.0895,-0.0864,-0.0864,-0.0864,-0.0864,-0.1469,-0.1456,-0.1346,-0.1265,-0.1179,-0.111,-0.1002,-0.0922,-0.084,-0.0803,-0.08,-0.0811,-0.0816,-0.0794,-0.0798,-0.0807,-0.0755,-0.0755,-0.0755,-0.1428,-0.1404,-0.1323,-0.1245,-0.1149,-0.1068,-0.0964,-0.0871,-0.0779,-0.0749,-0.0773,-0.0777,-0.0794,-0.0803,-0.0771,-0.0779,-0.0794,0,0]},{"header":{"parameterUnit":"m.s-1","parameterCategory":1,"la1":30.2992,"la2":30.254,"lo1":-89.0895,"lo2":-89.0443,"dy":0.0025,"dx":0.0025,"nx":19,"ny":19,"refTime":"2026-03-21T09:00:00:Z","depth":0,"parameterNumber":3,"parameterNumberName":"V-component_of_WINDS"},"data":[0,0,0,4.7224,4.7228,4.7384,4.7385,4.7585,4.7587,0,0,0,0,0,0,0,0,0,0,0,4.7182,4.7183,4.7224,4.7228,4.7384,4.7385,4.7585,4.7587,0,0,0,0,0,0,0,0,0,0,0,4.7181,4.7183,4.7185,4.7228,4.7384,4.7385,4.7585,4.7465,0,0,0,0,0,0,0,0,0,0,4.7313,4.7279,4.7183,4.7185,4.7229,4.7384,4.7385,4.7459,4.7473,4.7516,0,4.7559,0,4.7577,4.7601,4.7602,0,0,0,4.7223,4.7268,4.7307,4.7185,4.7231,4.7384,4.7312,4.7467,4.7482,4.7533,4.7562,4.7569,4.758,4.7602,4.7603,4.7879,4.788,0,0,4.7215,4.7211,4.7297,4.7317,4.7298,4.7307,4.7317,4.7476,4.7505,4.7563,4.7574,4.7583,4.7604,4.7605,4.7877,4.7879,0,0,0,4.7193,4.7205,4.724,4.7309,4.7337,4.7312,4.7324,4.7498,4.751,4.7576,4.7586,4.7605,4.7607,4.7876,4.7878,4.7953,0,0,0,4.7187,4.7193,4.7237,4.7236,4.7335,4.7421,4.7342,4.7499,4.7517,4.7585,4.7605,4.7609,4.7874,4.7877,4.7948,4.7989,0,0,0,4.717,4.719,4.7215,4.7236,4.7304,4.7418,4.7439,4.7503,4.7523,4.7602,4.761,4.7873,4.7876,4.7943,4.7981,4.8064,0,0,0,4.7149,4.7276,4.7216,4.7361,4.7302,4.7464,4.7438,4.7557,4.7633,4.7606,4.7874,4.7878,4.7941,4.7976,4.8059,4.8135,4.8167,0,0,4.7307,4.7294,4.738,4.7331,4.7504,4.744,4.7622,4.7692,4.7699,4.7817,4.7824,4.795,4.798,4.8063,4.8337,4.8362,0,0,0,4.7429,4.7491,4.7537,4.7612,4.7672,4.7726,4.777,4.7796,4.7897,4.7761,4.8,4.8018,4.8067,4.8104,4.8125,4.8168,4.7894,4.7894,4.7893,4.7647,4.7655,4.7797,4.7824,4.7896,4.7941,4.8,4.8042,4.8023,4.808,4.8116,4.8282,4.8326,4.8342,4.8386,4.8154,4.8155,4.8155,4.8155,4.7881,4.7971,4.7948,4.8079,4.8084,4.8191,4.8238,4.8222,4.8321,4.8255,4.8298,4.8228,4.8369,4.8408,4.8161,4.816,4.8159,4.8159,4.8158,4.8028,4.8073,4.8105,4.8217,4.8301,4.832,4.8419,4.8417,4.8416,4.8458,4.8498,4.8497,4.8498,4.8477,4.8477,4.8478,4.8479,4.8479,4.8479,4.8169,4.8204,4.829,4.8366,4.8415,4.8479,4.8525,4.8572,4.8624,4.8615,4.8615,4.8593,4.8381,4.833,4.8488,4.8487,4.8486,4.8485,4.8484,4.841,4.8356,4.8489,4.8539,4.8629,4.8713,4.871,4.8806,4.8844,4.8893,4.8861,4.8704,4.8689,4.8673,4.8631,4.8858,4.8858,4.8858,4.8858,4.8537,4.853,4.8668,4.8748,4.8826,4.8838,4.8985,4.9021,4.9049,4.9073,4.9039,4.8981,4.8964,4.8961,4.8937,4.8898,4.9189,4.9189,4.9189,4.8686,4.8688,4.8817,4.8848,4.8918,4.8977,4.9116,4.9206,4.9225,4.9203,4.9092,4.9078,4.8985,4.8954,4.8932,4.8896,4.8824,0,0]}]]